�N����,�����b,���ԉ��x,���Ԏ��x,��󒲎�,����,�����W,���։��x,���֎��x
2005/2/1,0:00:00,17.3 ,43.1 ,8.9 ,6.0 ,15.3 ,17.2 ,35.7 
2005/2/1,0:15:00,17.0 ,43.3 ,8.9 ,6.0 ,14.8 ,16.9 ,35.7 
2005/2/1,0:30:00,16.7 ,43.7 ,8.9 ,6.0 ,14.4 ,16.8 ,35.7 
2005/2/1,0:45:00,16.5 ,44.1 ,8.8 ,6.1 ,13.9 ,16.6 ,35.8 
2005/2/1,1:00:00,16.2 ,44.6 ,8.8 ,6.1 ,13.7 ,16.4 ,35.9 
2005/2/1,1:15:00,16.0 ,44.8 ,8.8 ,6.1 ,13.4 ,16.2 ,36.1 
2005/2/1,1:30:00,15.8 ,44.9 ,8.8 ,6.1 ,13.2 ,16.1 ,36.2 
2005/2/1,1:45:00,15.5 ,44.9 ,8.8 ,6.1 ,13.2 ,15.9 ,36.3 
2005/2/1,2:00:00,15.4 ,44.4 ,8.7 ,6.1 ,13.1 ,15.8 ,36.4 
2005/2/1,2:15:00,15.2 ,44.7 ,8.7 ,6.1 ,13.0 ,15.6 ,36.4 
2005/2/1,2:30:00,15.0 ,44.3 ,8.7 ,6.1 ,12.9 ,15.5 ,36.4 
2005/2/1,2:45:00,14.9 ,43.9 ,8.6 ,6.1 ,12.8 ,15.4 ,36.4 
2005/2/1,3:00:00,14.8 ,44.4 ,8.6 ,6.1 ,12.6 ,15.3 ,36.4 
2005/2/1,3:15:00,14.6 ,44.2 ,8.6 ,6.1 ,12.4 ,15.1 ,36.6 
2005/2/1,3:30:00,14.5 ,44.3 ,8.6 ,6.1 ,12.1 ,15.0 ,36.6 
2005/2/1,3:45:00,14.3 ,44.5 ,8.5 ,6.1 ,11.9 ,14.9 ,36.6 
2005/2/1,4:00:00,14.2 ,44.2 ,8.5 ,6.1 ,11.8 ,14.8 ,36.6 
2005/2/1,4:15:00,14.1 ,44.1 ,8.5 ,6.1 ,11.6 ,14.6 ,36.7 
2005/2/1,4:30:00,14.0 ,44.3 ,8.4 ,6.1 ,11.5 ,14.5 ,36.6 
2005/2/1,4:45:00,13.8 ,44.0 ,8.4 ,6.1 ,11.4 ,14.4 ,36.6 
2005/2/1,5:00:00,13.7 ,44.0 ,8.4 ,6.1 ,11.4 ,14.3 ,36.5 
2005/2/1,5:15:00,14.8 ,43.6 ,8.3 ,6.1 ,11.8 ,14.3 ,36.5 
2005/2/1,5:30:00,15.4 ,43.1 ,8.3 ,6.1 ,12.3 ,14.3 ,36.9 
2005/2/1,5:45:00,15.8 ,42.6 ,8.3 ,6.1 ,12.6 ,14.4 ,37.3 
2005/2/1,6:00:00,16.1 ,42.1 ,8.3 ,6.1 ,12.8 ,14.6 ,37.4 
2005/2/1,6:15:00,16.4 ,41.6 ,8.3 ,6.1 ,12.9 ,14.7 ,37.5 
2005/2/1,6:30:00,16.6 ,42.5 ,8.3 ,6.1 ,13.1 ,14.9 ,37.8 
2005/2/1,6:45:00,16.9 ,42.0 ,8.3 ,6.1 ,13.4 ,15.1 ,38.1 
2005/2/1,7:00:00,17.1 ,42.5 ,8.3 ,5.6 ,13.6 ,15.2 ,38.3 
2005/2/1,7:15:00,17.6 ,44.5 ,8.1 ,5.7 ,16.7 ,15.4 ,39.5 
2005/2/1,7:30:00,17.6 ,43.7 ,8.1 ,5.7 ,20.1 ,15.5 ,40.3 
2005/2/1,7:45:00,17.8 ,43.0 ,8.2 ,5.7 ,19.1 ,15.6 ,39.9 
2005/2/1,8:00:00,17.9 ,44.3 ,8.2 ,5.6 ,17.8 ,15.8 ,40.0 
2005/2/1,8:15:00,18.1 ,44.8 ,8.3 ,5.7 ,16.8 ,15.9 ,41.3 
2005/2/1,8:30:00,18.3 ,45.3 ,8.3 ,5.7 ,16.3 ,16.1 ,41.9 
2005/2/1,8:45:00,18.4 ,46.1 ,8.2 ,5.7 ,15.8 ,16.2 ,42.3 
2005/2/1,9:00:00,18.5 ,45.7 ,8.2 ,5.7 ,15.6 ,16.3 ,42.7 
2005/2/1,9:15:00,18.6 ,44.0 ,8.2 ,5.7 ,15.2 ,16.5 ,42.1 
2005/2/1,9:30:00,18.8 ,42.5 ,8.2 ,5.8 ,15.4 ,16.6 ,41.5 
2005/2/1,9:45:00,18.9 ,41.5 ,8.2 ,5.8 ,15.5 ,16.8 ,40.8 
2005/2/1,10:00:00,18.9 ,41.2 ,8.3 ,5.6 ,15.6 ,16.9 ,40.0 
2005/2/1,10:15:00,19.1 ,40.8 ,8.3 ,5.7 ,15.6 ,16.9 ,39.7 
2005/2/1,10:30:00,19.1 ,40.4 ,8.3 ,5.7 ,15.7 ,17.1 ,39.3 
2005/2/1,10:45:00,19.2 ,40.1 ,8.4 ,5.7 ,15.7 ,17.1 ,38.9 
2005/2/1,11:00:00,19.3 ,39.5 ,8.4 ,5.8 ,15.8 ,17.3 ,38.4 
2005/2/1,11:15:00,19.3 ,39.2 ,8.4 ,5.8 ,15.9 ,17.3 ,38.1 
2005/2/1,11:30:00,19.5 ,38.7 ,8.5 ,5.8 ,15.8 ,17.4 ,37.8 
2005/2/1,11:45:00,19.6 ,38.6 ,8.5 ,5.8 ,15.9 ,17.5 ,37.6 
2005/2/1,12:00:00,19.7 ,38.3 ,8.5 ,5.8 ,16.1 ,17.6 ,37.3 
2005/2/1,12:15:00,19.7 ,37.8 ,8.6 ,5.1 ,19.5 ,17.7 ,37.0 
2005/2/1,12:30:00,19.6 ,36.8 ,8.5 ,5.2 ,22.4 ,17.8 ,36.3 
2005/2/1,12:45:00,19.7 ,35.8 ,8.5 ,5.3 ,22.5 ,17.8 ,35.5 
2005/2/1,13:00:00,20.0 ,36.9 ,8.6 ,5.3 ,20.8 ,17.9 ,35.7 
2005/2/1,13:15:00,20.2 ,37.5 ,8.7 ,5.3 ,19.1 ,18.1 ,35.9 
2005/2/1,13:30:00,20.4 ,37.8 ,8.8 ,5.4 ,18.1 ,18.2 ,36.4 
2005/2/1,13:45:00,20.4 ,37.5 ,8.8 ,5.4 ,17.8 ,18.3 ,36.4 
2005/2/1,14:00:00,20.5 ,37.7 ,8.9 ,5.4 ,17.6 ,18.4 ,36.3 
2005/2/1,14:15:00,20.4 ,37.0 ,8.9 ,5.3 ,17.9 ,18.4 ,35.9 
2005/2/1,14:30:00,20.5 ,37.2 ,8.9 ,5.4 ,18.2 ,18.5 ,35.8 
2005/2/1,14:45:00,19.5 ,38.6 ,9.0 ,5.5 ,17.7 ,18.5 ,35.8 
2005/2/1,15:00:00,18.8 ,39.0 ,9.0 ,5.6 ,16.3 ,18.4 ,35.4 
2005/2/1,15:15:00,18.3 ,38.8 ,9.0 ,5.6 ,15.8 ,18.2 ,35.0 
2005/2/1,15:30:00,17.9 ,38.3 ,9.0 ,5.6 ,15.4 ,18.0 ,34.8 
2005/2/1,15:45:00,18.5 ,37.4 ,9.0 ,5.7 ,15.4 ,17.7 ,34.4 
2005/2/1,16:00:00,18.1 ,37.5 ,9.0 ,5.7 ,16.2 ,17.6 ,34.2 
2005/2/1,16:15:00,18.0 ,37.3 ,9.0 ,5.8 ,16.6 ,17.5 ,33.9 
2005/2/1,16:30:00,17.9 ,37.3 ,9.0 ,5.8 ,16.8 ,17.4 ,33.8 
2005/2/1,16:45:00,18.0 ,37.1 ,9.0 ,5.8 ,16.6 ,17.3 ,33.6 
2005/2/1,17:00:00,18.1 ,36.7 ,9.0 ,5.8 ,16.7 ,17.3 ,33.5 
2005/2/1,17:15:00,18.1 ,36.4 ,9.0 ,5.9 ,16.7 ,17.2 ,33.4 
2005/2/1,17:30:00,18.1 ,36.2 ,9.0 ,5.9 ,16.8 ,17.1 ,33.3 
2005/2/1,17:45:00,17.9 ,36.5 ,9.0 ,5.9 ,16.8 ,17.1 ,33.3 
2005/2/1,18:00:00,17.9 ,36.3 ,9.0 ,5.9 ,16.5 ,17.1 ,33.2 
2005/2/1,18:15:00,17.9 ,36.0 ,9.0 ,5.9 ,16.3 ,17.0 ,33.1 
2005/2/1,18:30:00,17.9 ,36.1 ,9.0 ,6.0 ,16.1 ,16.9 ,33.1 
2005/2/1,18:45:00,18.0 ,35.9 ,9.0 ,6.0 ,16.2 ,16.9 ,33.0 
2005/2/1,19:00:00,18.6 ,35.0 ,9.0 ,6.0 ,16.1 ,16.9 ,33.2 
2005/2/1,19:15:00,19.0 ,34.9 ,8.9 ,5.0 ,16.4 ,17.0 ,33.3 
2005/2/1,19:30:00,19.2 ,34.8 ,8.8 ,5.1 ,17.0 ,17.1 ,33.4 
2005/2/1,19:45:00,19.5 ,36.0 ,8.8 ,5.1 ,17.9 ,17.3 ,33.8 
2005/2/1,20:00:00,19.5 ,35.9 ,8.8 ,5.2 ,17.8 ,17.4 ,34.1 
2005/2/1,20:15:00,19.7 ,35.6 ,8.7 ,5.2 ,18.0 ,17.5 ,34.1 
2005/2/1,20:30:00,19.8 ,35.3 ,8.7 ,5.3 ,17.8 ,17.6 ,34.1 
2005/2/1,20:45:00,20.0 ,35.0 ,8.7 ,5.3 ,17.6 ,17.8 ,34.1 
2005/2/1,21:00:00,19.9 ,34.5 ,8.6 ,5.3 ,17.5 ,17.8 ,33.9 
2005/2/1,21:15:00,20.0 ,34.3 ,8.6 ,5.4 ,17.4 ,17.9 ,33.7 
2005/2/1,21:30:00,20.1 ,33.8 ,8.6 ,5.4 ,17.5 ,18.1 ,33.5 
2005/2/1,21:45:00,20.2 ,33.6 ,8.6 ,5.4 ,17.1 ,18.1 ,33.3 
2005/2/1,22:00:00,20.4 ,34.3 ,8.6 ,5.4 ,18.0 ,18.3 ,33.3 
2005/2/1,22:15:00,20.4 ,37.1 ,8.8 ,5.5 ,18.4 ,18.3 ,33.9 
2005/2/1,22:30:00,20.5 ,38.1 ,8.7 ,5.5 ,17.7 ,18.4 ,34.9 
2005/2/1,22:45:00,20.7 ,39.5 ,8.7 ,4.8 ,17.5 ,18.5 ,35.9 
2005/2/1,23:00:00,20.7 ,40.5 ,8.7 ,4.9 ,17.3 ,18.6 ,36.6 
2005/2/1,23:15:00,20.8 ,39.9 ,8.6 ,4.9 ,17.3 ,18.7 ,36.8 
2005/2/1,23:30:00,20.9 ,40.8 ,8.6 ,5.0 ,17.5 ,18.8 ,37.6 
2005/2/1,23:45:00,19.1 ,42.1 ,8.7 ,5.0 ,16.9 ,18.6 ,36.1 
2005/2/2,0:00:00,18.6 ,41.9 ,8.7 ,5.1 ,15.8 ,18.3 ,35.5 
2005/2/2,0:15:00,18.2 ,41.6 ,8.6 ,5.1 ,14.8 ,18.0 ,35.3 
2005/2/2,0:30:00,17.8 ,41.6 ,8.6 ,5.1 ,14.2 ,17.7 ,35.2 
2005/2/2,0:45:00,17.4 ,41.5 ,8.6 ,5.2 ,13.7 ,17.4 ,35.1 
2005/2/2,1:00:00,17.2 ,41.4 ,8.6 ,5.2 ,13.4 ,17.2 ,35.1 
2005/2/2,1:15:00,16.9 ,41.7 ,8.5 ,5.2 ,13.1 ,17.0 ,35.1 
2005/2/2,1:30:00,16.6 ,41.7 ,8.5 ,5.2 ,13.0 ,16.8 ,35.1 
2005/2/2,1:45:00,16.3 ,41.1 ,8.4 ,5.3 ,13.1 ,16.6 ,35.1 
2005/2/2,2:00:00,16.1 ,40.8 ,8.4 ,5.3 ,13.2 ,16.4 ,35.2 
2005/2/2,2:15:00,15.9 ,42.0 ,8.4 ,5.3 ,13.2 ,16.2 ,35.3 
2005/2/2,2:30:00,15.7 ,41.4 ,8.4 ,5.3 ,13.2 ,16.0 ,35.4 
2005/2/2,2:45:00,15.5 ,41.3 ,8.3 ,5.3 ,13.1 ,15.9 ,35.3 
2005/2/2,3:00:00,15.3 ,41.7 ,8.3 ,5.3 ,12.8 ,15.8 ,35.3 
2005/2/2,3:15:00,15.1 ,42.1 ,8.3 ,5.4 ,12.6 ,15.6 ,35.3 
2005/2/2,3:30:00,14.9 ,41.9 ,8.2 ,5.4 ,12.1 ,15.4 ,35.3 
2005/2/2,3:45:00,14.7 ,42.0 ,8.2 ,5.4 ,11.7 ,15.3 ,35.3 
2005/2/2,4:00:00,14.6 ,42.0 ,8.2 ,5.4 ,11.4 ,15.2 ,35.3 
2005/2/2,4:15:00,15.6 ,41.7 ,8.1 ,5.4 ,12.0 ,15.1 ,35.4 
2005/2/2,4:30:00,16.2 ,40.8 ,8.1 ,5.4 ,12.7 ,15.1 ,35.5 
2005/2/2,4:45:00,16.6 ,40.4 ,8.1 ,5.4 ,13.0 ,15.2 ,35.8 
2005/2/2,5:00:00,16.8 ,40.1 ,8.1 ,5.4 ,13.1 ,15.3 ,35.9 
2005/2/2,5:15:00,17.0 ,39.6 ,8.1 ,5.4 ,13.3 ,15.4 ,35.9 
2005/2/2,5:30:00,17.2 ,39.3 ,8.0 ,5.4 ,13.6 ,15.5 ,35.9 
2005/2/2,5:45:00,17.3 ,38.8 ,8.0 ,5.4 ,13.9 ,15.6 ,35.8 
2005/2/2,6:00:00,17.5 ,38.4 ,8.0 ,5.4 ,14.2 ,15.7 ,35.7 
2005/2/2,6:15:00,17.9 ,37.6 ,8.0 ,5.2 ,14.4 ,15.8 ,35.6 
2005/2/2,6:30:00,18.1 ,37.5 ,8.0 ,5.3 ,14.4 ,15.9 ,35.6 
2005/2/2,6:45:00,18.3 ,37.6 ,8.0 ,5.4 ,14.4 ,16.1 ,35.6 
2005/2/2,7:00:00,18.5 ,38.4 ,8.0 ,5.4 ,14.5 ,16.3 ,35.9 
2005/2/2,7:15:00,18.8 ,38.7 ,8.0 ,5.4 ,16.7 ,16.4 ,36.2 
2005/2/2,7:30:00,19.0 ,39.9 ,8.0 ,5.5 ,16.6 ,16.6 ,36.9 
2005/2/2,7:45:00,19.1 ,42.1 ,8.1 ,5.5 ,16.3 ,16.7 ,37.8 
2005/2/2,8:00:00,19.3 ,42.1 ,8.1 ,5.5 ,15.8 ,16.8 ,39.2 
2005/2/2,8:15:00,19.4 ,41.1 ,8.2 ,5.5 ,15.8 ,17.0 ,39.3 
2005/2/2,8:30:00,19.5 ,42.0 ,8.3 ,5.5 ,15.9 ,17.1 ,39.3 
2005/2/2,8:45:00,19.5 ,42.0 ,8.3 ,5.5 ,16.0 ,17.3 ,39.9 
2005/2/2,9:00:00,19.9 ,41.6 ,8.4 ,5.5 ,16.3 ,17.4 ,39.8 
2005/2/2,9:15:00,20.0 ,41.1 ,8.5 ,5.5 ,16.2 ,17.6 ,40.1 
2005/2/2,9:30:00,19.9 ,40.3 ,8.5 ,4.9 ,16.2 ,17.7 ,39.4 
2005/2/2,9:45:00,20.0 ,40.0 ,8.6 ,4.9 ,16.1 ,17.8 ,39.0 
2005/2/2,10:00:00,20.2 ,39.2 ,8.6 ,5.0 ,16.2 ,18.0 ,38.4 
2005/2/2,10:15:00,20.5 ,38.3 ,8.7 ,5.0 ,16.3 ,18.1 ,37.9 
2005/2/2,10:30:00,20.6 ,37.6 ,8.9 ,4.9 ,16.5 ,18.3 ,37.6 
2005/2/2,10:45:00,21.0 ,36.8 ,9.0 ,4.9 ,16.7 ,18.4 ,37.0 
2005/2/2,11:00:00,21.6 ,35.5 ,8.9 ,5.0 ,17.2 ,18.6 ,36.5 
2005/2/2,11:15:00,20.8 ,35.9 ,9.0 ,5.0 ,17.7 ,18.8 ,36.1 
2005/2/2,11:30:00,20.3 ,36.9 ,9.1 ,5.1 ,17.2 ,18.8 ,35.5 
2005/2/2,11:45:00,20.0 ,37.3 ,9.2 ,5.1 ,16.8 ,18.8 ,35.2 
2005/2/2,12:00:00,19.7 ,37.7 ,9.3 ,5.1 ,16.5 ,18.8 ,35.0 
2005/2/2,12:15:00,19.6 ,37.7 ,9.4 ,5.2 ,16.3 ,18.7 ,34.8 
2005/2/2,12:30:00,19.5 ,37.7 ,9.4 ,5.2 ,16.3 ,18.6 ,34.6 
2005/2/2,12:45:00,19.4 ,37.8 ,9.5 ,5.3 ,16.0 ,18.6 ,34.5 
2005/2/2,13:00:00,19.1 ,38.1 ,9.6 ,5.3 ,15.7 ,18.5 ,34.4 
2005/2/2,13:15:00,19.0 ,38.1 ,9.6 ,5.3 ,15.8 ,18.4 ,34.2 
2005/2/2,13:30:00,18.9 ,38.1 ,9.6 ,5.4 ,15.7 ,18.4 ,34.1 
2005/2/2,13:45:00,18.7 ,38.2 ,9.7 ,5.4 ,15.5 ,18.3 ,34.0 
2005/2/2,14:00:00,18.4 ,38.4 ,9.7 ,5.5 ,15.2 ,18.2 ,33.9 
2005/2/2,14:15:00,18.3 ,38.5 ,9.7 ,5.5 ,15.1 ,18.1 ,33.9 
2005/2/2,14:30:00,18.2 ,38.6 ,9.7 ,5.5 ,15.1 ,17.9 ,33.9 
2005/2/2,14:45:00,18.1 ,38.7 ,9.8 ,5.6 ,15.0 ,17.8 ,33.8 
2005/2/2,15:00:00,17.8 ,38.8 ,9.8 ,5.6 ,14.7 ,17.7 ,33.8 
2005/2/2,15:15:00,17.7 ,39.0 ,9.8 ,5.7 ,14.5 ,17.6 ,33.7 
2005/2/2,15:30:00,17.4 ,39.1 ,9.8 ,5.7 ,14.4 ,17.5 ,33.8 
2005/2/2,15:45:00,17.2 ,39.2 ,9.8 ,5.7 ,14.1 ,17.4 ,33.7 
2005/2/2,16:00:00,16.6 ,39.1 ,10.0 ,5.8 ,13.9 ,17.3 ,33.6 
2005/2/2,16:15:00,18.4 ,36.5 ,9.9 ,5.2 ,14.3 ,17.3 ,33.4 
2005/2/2,16:30:00,18.9 ,36.2 ,9.8 ,5.3 ,14.7 ,17.3 ,33.6 
2005/2/2,16:45:00,19.2 ,36.1 ,9.8 ,5.4 ,15.1 ,17.4 ,33.8 
2005/2/2,17:00:00,19.4 ,35.8 ,9.7 ,5.4 ,15.4 ,17.6 ,33.9 
2005/2/2,17:15:00,19.5 ,35.7 ,9.7 ,5.5 ,15.8 ,17.7 ,33.9 
2005/2/2,17:30:00,19.7 ,35.4 ,9.7 ,5.6 ,16.0 ,17.8 ,33.9 
2005/2/2,17:45:00,19.9 ,35.1 ,9.7 ,5.6 ,16.4 ,17.9 ,33.9 
2005/2/2,18:00:00,20.2 ,35.7 ,9.7 ,5.7 ,16.4 ,18.1 ,33.9 
2005/2/2,18:15:00,20.6 ,36.5 ,9.7 ,5.7 ,16.8 ,18.3 ,34.5 
2005/2/2,18:30:00,20.6 ,38.6 ,9.6 ,5.7 ,17.2 ,18.4 ,35.5 
2005/2/2,18:45:00,20.8 ,38.3 ,9.6 ,4.7 ,20.2 ,18.5 ,35.6 
2005/2/2,19:00:00,21.1 ,37.6 ,9.6 ,4.8 ,19.1 ,18.6 ,36.0 
2005/2/2,19:15:00,21.3 ,37.0 ,9.6 ,4.9 ,18.5 ,18.8 ,35.9 
2005/2/2,19:30:00,21.4 ,36.3 ,9.6 ,5.0 ,18.1 ,18.9 ,35.7 
2005/2/2,19:45:00,21.6 ,35.7 ,9.6 ,5.0 ,17.9 ,19.1 ,35.4 
2005/2/2,20:00:00,21.7 ,35.2 ,9.5 ,5.1 ,17.7 ,19.2 ,35.1 
2005/2/2,20:15:00,21.9 ,36.8 ,9.5 ,5.2 ,18.0 ,19.3 ,35.3 
2005/2/2,20:30:00,21.2 ,38.4 ,9.4 ,5.2 ,18.3 ,19.5 ,35.9 
2005/2/2,20:45:00,21.9 ,37.2 ,9.5 ,5.3 ,17.9 ,19.5 ,35.9 
2005/2/2,21:00:00,22.2 ,36.8 ,9.5 ,5.3 ,18.0 ,19.6 ,36.1 
2005/2/2,21:15:00,22.4 ,36.2 ,9.5 ,5.4 ,18.1 ,19.8 ,36.0 
2005/2/2,21:30:00,22.6 ,35.8 ,9.5 ,5.4 ,18.3 ,19.9 ,35.8 
2005/2/2,21:45:00,22.2 ,36.1 ,9.5 ,5.5 ,18.3 ,20.0 ,35.6 
2005/2/2,22:00:00,22.1 ,35.3 ,9.5 ,5.5 ,18.3 ,20.1 ,35.3 
2005/2/2,22:15:00,21.9 ,35.7 ,9.5 ,4.5 ,18.0 ,20.1 ,34.8 
2005/2/2,22:30:00,21.9 ,35.5 ,9.6 ,4.2 ,18.1 ,20.1 ,34.5 
2005/2/2,22:45:00,22.0 ,37.0 ,9.6 ,4.3 ,18.3 ,20.1 ,34.6 
2005/2/2,23:00:00,20.8 ,39.7 ,9.6 ,4.4 ,17.7 ,20.0 ,35.1 
2005/2/2,23:15:00,20.3 ,40.9 ,9.6 ,4.5 ,17.2 ,19.8 ,35.1 
2005/2/2,23:30:00,19.8 ,41.1 ,9.5 ,4.6 ,16.6 ,19.6 ,35.1 
2005/2/2,23:45:00,19.4 ,40.8 ,9.5 ,4.6 ,16.1 ,19.3 ,35.3 
2005/2/3,0:00:00,19.1 ,41.1 ,9.5 ,4.7 ,15.7 ,19.1 ,35.3 
2005/2/3,0:15:00,18.8 ,41.6 ,9.4 ,4.8 ,15.4 ,18.9 ,35.4 
2005/2/3,0:30:00,18.6 ,42.0 ,9.4 ,4.8 ,15.2 ,18.7 ,35.5 
2005/2/3,0:45:00,18.3 ,41.6 ,9.4 ,4.9 ,15.0 ,18.5 ,35.6 
2005/2/3,1:00:00,18.1 ,41.6 ,9.4 ,4.9 ,14.8 ,18.3 ,35.8 
2005/2/3,1:15:00,17.8 ,41.6 ,9.3 ,4.9 ,14.6 ,18.1 ,35.6 
2005/2/3,1:30:00,17.6 ,41.8 ,9.3 ,5.0 ,14.4 ,17.9 ,35.6 
2005/2/3,1:45:00,17.5 ,42.6 ,9.3 ,5.0 ,14.4 ,17.8 ,35.8 
2005/2/3,2:00:00,17.3 ,42.3 ,9.3 ,5.1 ,14.3 ,17.6 ,35.8 
2005/2/3,2:15:00,17.1 ,42.4 ,9.3 ,5.1 ,14.3 ,17.4 ,35.8 
2005/2/3,2:30:00,16.9 ,42.3 ,9.2 ,5.2 ,14.2 ,17.3 ,35.8 
2005/2/3,2:45:00,16.8 ,42.1 ,9.2 ,5.2 ,14.3 ,17.2 ,35.8 
2005/2/3,3:00:00,16.6 ,42.3 ,9.2 ,5.2 ,14.3 ,17.1 ,35.8 
2005/2/3,3:15:00,16.4 ,42.0 ,9.1 ,5.3 ,14.1 ,16.9 ,35.8 
2005/2/3,3:30:00,16.3 ,42.5 ,9.1 ,5.3 ,13.8 ,16.8 ,35.8 
2005/2/3,3:45:00,16.1 ,42.2 ,9.1 ,5.3 ,13.5 ,16.7 ,35.8 
2005/2/3,4:00:00,15.9 ,42.5 ,9.1 ,5.3 ,13.4 ,16.6 ,35.8 
2005/2/3,4:15:00,17.0 ,42.7 ,9.0 ,5.4 ,13.7 ,16.4 ,35.8 
2005/2/3,4:30:00,17.5 ,41.8 ,9.0 ,5.4 ,14.1 ,16.5 ,36.1 
2005/2/3,4:45:00,17.8 ,41.4 ,9.0 ,5.4 ,14.4 ,16.6 ,36.4 
2005/2/3,5:00:00,18.0 ,41.1 ,9.0 ,5.4 ,14.5 ,16.6 ,36.6 
2005/2/3,5:15:00,18.3 ,40.6 ,9.0 ,5.5 ,14.6 ,16.8 ,36.6 
2005/2/3,5:30:00,18.4 ,40.3 ,8.9 ,5.5 ,14.8 ,16.8 ,36.6 
2005/2/3,5:45:00,18.6 ,40.1 ,8.9 ,5.5 ,14.9 ,16.9 ,36.6 
2005/2/3,6:00:00,18.7 ,39.8 ,8.9 ,5.5 ,15.1 ,17.0 ,36.6 
2005/2/3,6:15:00,18.8 ,39.4 ,8.9 ,5.5 ,15.2 ,17.1 ,36.5 
2005/2/3,6:30:00,18.9 ,39.3 ,8.9 ,5.6 ,15.3 ,17.2 ,36.4 
2005/2/3,6:45:00,19.3 ,38.6 ,8.9 ,4.7 ,15.6 ,17.3 ,36.4 
2005/2/3,7:00:00,19.5 ,38.2 ,8.9 ,4.8 ,15.6 ,17.4 ,36.4 
2005/2/3,7:15:00,19.7 ,38.0 ,8.9 ,4.8 ,16.0 ,17.5 ,36.3 
2005/2/3,7:30:00,19.8 ,38.8 ,8.9 ,4.9 ,16.1 ,17.6 ,36.4 
2005/2/3,7:45:00,20.0 ,40.8 ,9.0 ,5.0 ,16.6 ,17.8 ,37.5 
2005/2/3,8:00:00,20.4 ,40.2 ,9.0 ,5.1 ,17.1 ,18.0 ,38.2 
2005/2/3,8:15:00,20.4 ,39.7 ,9.0 ,4.7 ,17.3 ,18.2 ,37.9 
2005/2/3,8:30:00,20.7 ,40.8 ,9.1 ,4.8 ,17.4 ,18.3 ,38.6 
2005/2/3,8:45:00,21.3 ,40.1 ,9.1 ,4.9 ,17.6 ,18.5 ,39.3 
2005/2/3,9:00:00,21.8 ,39.2 ,9.2 ,4.9 ,17.9 ,18.8 ,39.4 
2005/2/3,9:15:00,22.2 ,39.8 ,9.3 ,5.0 ,18.1 ,19.0 ,40.2 
2005/2/3,9:30:00,21.4 ,40.8 ,9.3 ,5.1 ,18.0 ,19.3 ,39.9 
2005/2/3,9:45:00,22.0 ,38.5 ,9.4 ,5.2 ,18.0 ,19.3 ,38.8 
2005/2/3,10:00:00,22.6 ,36.5 ,9.6 ,5.2 ,18.4 ,19.6 ,38.1 
2005/2/3,10:15:00,22.7 ,35.5 ,9.8 ,5.3 ,18.9 ,19.8 ,37.4 
2005/2/3,10:30:00,21.8 ,37.0 ,9.9 ,5.4 ,18.5 ,19.9 ,36.6 
2005/2/3,10:45:00,21.4 ,37.2 ,10.1 ,5.4 ,18.1 ,19.9 ,36.0 
2005/2/3,11:00:00,22.2 ,35.3 ,10.2 ,5.5 ,18.0 ,20.0 ,35.5 
2005/2/3,11:15:00,22.8 ,34.2 ,10.3 ,5.6 ,18.3 ,20.1 ,35.2 
2005/2/3,11:30:00,22.9 ,33.7 ,10.4 ,5.6 ,18.7 ,20.3 ,34.9 
2005/2/3,11:45:00,22.0 ,35.0 ,10.5 ,5.7 ,18.4 ,20.4 ,34.6 
2005/2/3,12:00:00,21.8 ,35.2 ,10.6 ,5.7 ,18.1 ,20.4 ,34.2 
2005/2/3,12:15:00,21.8 ,35.4 ,10.7 ,5.8 ,17.9 ,20.4 ,33.9 
2005/2/3,12:30:00,23.1 ,32.8 ,10.8 ,5.9 ,18.4 ,20.5 ,33.8 
2005/2/3,12:45:00,22.0 ,34.7 ,10.9 ,5.9 ,18.3 ,20.6 ,33.7 
2005/2/3,13:00:00,21.6 ,35.3 ,10.9 ,6.0 ,17.9 ,20.5 ,33.5 
2005/2/3,13:15:00,21.8 ,35.1 ,11.0 ,6.1 ,17.6 ,20.5 ,33.3 
2005/2/3,13:30:00,22.0 ,34.3 ,11.0 ,6.1 ,17.9 ,20.6 ,33.3 
2005/2/3,13:45:00,21.4 ,35.3 ,11.1 ,6.2 ,17.6 ,20.5 ,33.2 
2005/2/3,14:00:00,22.6 ,33.2 ,11.1 ,6.3 ,17.7 ,20.5 ,33.1 
2005/2/3,14:15:00,22.6 ,32.9 ,11.2 ,6.3 ,17.5 ,20.6 ,32.9 
2005/2/3,14:30:00,22.1 ,33.4 ,11.3 ,6.4 ,17.4 ,20.7 ,32.9 
2005/2/3,14:45:00,21.2 ,35.5 ,11.3 ,6.4 ,17.1 ,20.7 ,32.8 
2005/2/3,15:00:00,22.2 ,34.2 ,11.2 ,6.5 ,21.8 ,20.6 ,32.8 
2005/2/3,15:15:00,22.3 ,34.2 ,11.3 ,6.5 ,21.8 ,20.6 ,32.9 
2005/2/3,15:30:00,22.2 ,34.8 ,11.3 ,6.6 ,20.0 ,20.6 ,33.0 
2005/2/3,15:45:00,21.0 ,35.9 ,11.4 ,5.3 ,18.8 ,20.6 ,32.9 
2005/2/3,16:00:00,20.5 ,36.6 ,11.4 ,5.4 ,17.7 ,20.5 ,32.9 
2005/2/3,16:15:00,20.1 ,36.7 ,11.4 ,5.6 ,17.1 ,20.3 ,32.9 
2005/2/3,16:30:00,19.8 ,37.0 ,11.4 ,5.7 ,16.4 ,20.2 ,32.9 
2005/2/3,16:45:00,19.5 ,37.1 ,11.3 ,5.8 ,15.7 ,20.0 ,32.8 
2005/2/3,17:00:00,19.2 ,37.3 ,11.3 ,5.9 ,15.4 ,19.8 ,32.7 
2005/2/3,17:15:00,18.9 ,37.3 ,11.3 ,6.0 ,15.1 ,19.6 ,32.7 
2005/2/3,17:30:00,18.7 ,37.4 ,11.2 ,6.0 ,14.9 ,19.5 ,32.6 
2005/2/3,17:45:00,18.5 ,37.5 ,11.2 ,6.1 ,14.8 ,19.3 ,32.6 
2005/2/3,18:00:00,18.3 ,37.4 ,11.1 ,6.2 ,14.7 ,19.1 ,32.6 
2005/2/3,18:15:00,18.0 ,37.5 ,11.1 ,6.2 ,14.6 ,18.9 ,32.6 
2005/2/3,18:30:00,17.8 ,37.6 ,11.0 ,6.3 ,14.5 ,18.8 ,32.6 
2005/2/3,18:45:00,19.0 ,36.3 ,11.0 ,6.3 ,14.8 ,18.6 ,32.4 
2005/2/3,19:00:00,19.7 ,34.9 ,11.0 ,6.4 ,15.6 ,18.6 ,32.5 
2005/2/3,19:15:00,20.3 ,34.5 ,10.9 ,6.4 ,16.2 ,18.7 ,32.6 
2005/2/3,19:30:00,20.6 ,34.2 ,10.8 ,6.4 ,16.4 ,18.9 ,32.8 
2005/2/3,19:45:00,20.9 ,33.9 ,10.8 ,6.5 ,16.6 ,19.0 ,32.8 
2005/2/3,20:00:00,21.0 ,34.0 ,10.8 ,6.5 ,16.8 ,19.1 ,32.8 
2005/2/3,20:15:00,21.3 ,36.2 ,10.9 ,4.2 ,17.0 ,19.3 ,33.2 
2005/2/3,20:30:00,21.5 ,35.9 ,10.9 ,4.4 ,17.3 ,19.5 ,33.7 
2005/2/3,20:45:00,21.7 ,35.7 ,10.8 ,4.6 ,17.5 ,19.6 ,33.8 
2005/2/3,21:00:00,21.8 ,35.0 ,10.8 ,4.7 ,17.6 ,19.8 ,33.8 
2005/2/3,21:15:00,22.0 ,35.4 ,10.8 ,4.8 ,17.7 ,19.9 ,33.7 
2005/2/3,21:30:00,22.0 ,38.3 ,10.8 ,4.9 ,17.8 ,20.0 ,34.5 
2005/2/3,21:45:00,22.1 ,38.9 ,10.8 ,4.0 ,18.0 ,20.1 ,35.4 
2005/2/3,22:00:00,22.3 ,38.0 ,10.8 ,4.1 ,17.9 ,20.2 ,35.5 
2005/2/3,22:15:00,22.0 ,37.8 ,10.7 ,4.2 ,17.7 ,20.3 ,35.2 
2005/2/3,22:30:00,21.9 ,38.6 ,10.8 ,4.0 ,17.8 ,20.3 ,35.2 
2005/2/3,22:45:00,21.9 ,38.3 ,10.7 ,4.1 ,17.8 ,20.3 ,35.3 
2005/2/3,23:00:00,22.0 ,39.6 ,10.7 ,4.3 ,18.0 ,20.3 ,35.6 
2005/2/3,23:15:00,22.0 ,39.7 ,10.7 ,4.4 ,18.1 ,20.3 ,36.1 
2005/2/3,23:30:00,20.8 ,40.6 ,10.7 ,4.5 ,17.5 ,20.3 ,35.8 
2005/2/3,23:45:00,20.2 ,39.8 ,10.7 ,4.6 ,16.7 ,20.1 ,35.4 
2005/2/4,0:00:00,19.8 ,39.4 ,10.7 ,4.7 ,16.2 ,19.9 ,35.1 
2005/2/4,0:15:00,19.4 ,39.2 ,10.6 ,4.7 ,15.8 ,19.7 ,34.8 
2005/2/4,0:30:00,19.1 ,38.4 ,10.6 ,4.8 ,15.5 ,19.5 ,34.6 
2005/2/4,0:45:00,18.8 ,38.5 ,10.6 ,4.9 ,15.2 ,19.3 ,34.4 
2005/2/4,1:00:00,18.6 ,38.6 ,10.5 ,4.9 ,14.9 ,19.1 ,34.3 
2005/2/4,1:15:00,18.3 ,38.7 ,10.5 ,5.0 ,14.8 ,18.9 ,34.2 
2005/2/4,1:30:00,18.1 ,38.6 ,10.5 ,5.1 ,14.7 ,18.8 ,34.0 
2005/2/4,1:45:00,17.9 ,38.4 ,10.4 ,5.1 ,14.6 ,18.6 ,33.8 
2005/2/4,2:00:00,17.8 ,38.2 ,10.4 ,5.2 ,14.5 ,18.4 ,33.7 
2005/2/4,2:15:00,17.6 ,38.1 ,10.3 ,5.3 ,14.5 ,18.3 ,33.6 
2005/2/4,2:30:00,17.4 ,38.2 ,10.3 ,5.3 ,14.5 ,18.1 ,33.5 
2005/2/4,2:45:00,17.2 ,38.4 ,10.2 ,5.4 ,14.4 ,18.0 ,33.5 
2005/2/4,3:00:00,17.0 ,38.6 ,10.2 ,5.4 ,14.2 ,17.8 ,33.5 
2005/2/4,3:15:00,16.8 ,38.8 ,10.1 ,5.5 ,14.0 ,17.6 ,33.4 
2005/2/4,3:30:00,16.6 ,39.0 ,10.1 ,5.5 ,13.8 ,17.5 ,33.3 
2005/2/4,3:45:00,16.4 ,39.1 ,10.1 ,5.5 ,13.6 ,17.4 ,33.3 
2005/2/4,4:00:00,16.3 ,39.2 ,10.0 ,5.6 ,13.5 ,17.3 ,33.3 
2005/2/4,4:15:00,17.6 ,39.3 ,10.0 ,5.6 ,13.9 ,17.1 ,33.4 
2005/2/4,4:30:00,18.1 ,38.5 ,9.9 ,5.7 ,14.4 ,17.2 ,33.6 
2005/2/4,4:45:00,18.4 ,38.1 ,9.9 ,5.7 ,14.7 ,17.3 ,33.8 
2005/2/4,5:00:00,18.7 ,37.7 ,9.9 ,5.7 ,14.9 ,17.3 ,33.9 
2005/2/4,5:15:00,18.8 ,37.4 ,9.9 ,5.8 ,15.1 ,17.4 ,34.0 
2005/2/4,5:30:00,19.0 ,37.2 ,9.9 ,5.8 ,15.2 ,17.5 ,34.0 
2005/2/4,5:45:00,19.2 ,36.9 ,9.9 ,5.8 ,15.5 ,17.6 ,34.0 
2005/2/4,6:00:00,19.3 ,36.5 ,9.8 ,5.8 ,15.5 ,17.7 ,34.0 
2005/2/4,6:15:00,19.4 ,36.5 ,9.8 ,5.9 ,15.5 ,17.8 ,34.0 
2005/2/4,6:30:00,19.6 ,36.9 ,9.8 ,5.9 ,15.7 ,17.9 ,34.1 
2005/2/4,6:45:00,19.9 ,36.2 ,9.8 ,5.9 ,15.9 ,18.0 ,34.2 
2005/2/4,7:00:00,20.0 ,35.7 ,9.8 ,4.7 ,16.3 ,18.1 ,34.1 
2005/2/4,7:15:00,20.1 ,36.7 ,9.8 ,4.8 ,16.1 ,18.3 ,34.3 
2005/2/4,7:30:00,20.6 ,40.9 ,9.8 ,4.9 ,18.0 ,18.4 ,35.6 
2005/2/4,7:45:00,20.7 ,42.8 ,9.8 ,5.1 ,17.9 ,18.6 ,37.9 
2005/2/4,8:00:00,20.9 ,42.4 ,9.8 ,5.2 ,17.5 ,18.8 ,38.5 
2005/2/4,8:15:00,20.9 ,40.2 ,10.0 ,5.2 ,17.5 ,18.9 ,37.8 
2005/2/4,8:30:00,21.1 ,38.9 ,9.9 ,5.3 ,17.5 ,19.0 ,37.3 
2005/2/4,8:45:00,21.2 ,38.8 ,9.9 ,4.6 ,17.5 ,19.1 ,36.8 
2005/2/4,9:00:00,21.3 ,40.2 ,10.0 ,4.8 ,17.5 ,19.3 ,37.3 
2005/2/4,9:15:00,21.3 ,39.8 ,10.0 ,4.9 ,17.4 ,19.4 ,37.3 
2005/2/4,9:30:00,21.4 ,39.1 ,10.1 ,5.0 ,17.5 ,19.5 ,37.0 
2005/2/4,9:45:00,21.5 ,38.3 ,10.1 ,5.1 ,17.6 ,19.6 ,36.6 
2005/2/4,10:00:00,21.7 ,37.6 ,10.0 ,5.1 ,17.5 ,19.7 ,36.2 
2005/2/4,10:15:00,21.7 ,37.6 ,10.0 ,5.2 ,17.6 ,19.8 ,36.0 
2005/2/4,10:30:00,21.8 ,36.7 ,10.1 ,5.3 ,17.7 ,19.9 ,35.6 
2005/2/4,10:45:00,21.9 ,36.2 ,10.2 ,5.4 ,17.8 ,19.9 ,35.3 
2005/2/4,11:00:00,22.0 ,35.9 ,10.3 ,5.4 ,18.0 ,20.1 ,35.0 
2005/2/4,11:15:00,22.1 ,35.7 ,10.3 ,5.5 ,18.1 ,20.1 ,34.8 
2005/2/4,11:30:00,22.2 ,35.5 ,10.4 ,5.5 ,18.2 ,20.3 ,34.6 
2005/2/4,11:45:00,22.2 ,35.3 ,10.5 ,4.8 ,18.3 ,20.3 ,34.4 
2005/2/4,12:00:00,22.6 ,35.1 ,10.5 ,4.9 ,18.5 ,20.4 ,34.4 
2005/2/4,12:15:00,22.7 ,35.5 ,10.5 ,5.0 ,19.9 ,20.5 ,34.3 
2005/2/4,12:30:00,22.8 ,39.2 ,10.6 ,5.1 ,19.4 ,20.6 ,35.4 
2005/2/4,12:45:00,22.8 ,39.7 ,10.6 ,5.2 ,18.8 ,20.8 ,36.7 
2005/2/4,13:00:00,22.9 ,38.6 ,10.6 ,5.0 ,19.0 ,20.9 ,36.5 
2005/2/4,13:15:00,23.0 ,37.9 ,10.7 ,5.1 ,19.2 ,20.9 ,36.3 
2005/2/4,13:30:00,23.1 ,38.2 ,10.7 ,5.2 ,19.3 ,21.1 ,36.3 
2005/2/4,13:45:00,23.2 ,37.6 ,10.7 ,4.8 ,19.4 ,21.2 ,36.2 
2005/2/4,14:00:00,22.6 ,38.0 ,10.7 ,5.0 ,19.5 ,21.2 ,35.6 
2005/2/4,14:15:00,23.0 ,36.3 ,10.8 ,5.1 ,19.6 ,21.2 ,35.1 
2005/2/4,14:30:00,22.7 ,36.4 ,10.8 ,5.2 ,19.5 ,21.3 ,34.9 
2005/2/4,14:45:00,21.4 ,37.4 ,10.9 ,4.9 ,18.5 ,21.2 ,34.6 
2005/2/4,15:00:00,20.9 ,37.6 ,10.9 ,5.0 ,17.8 ,20.9 ,34.3 
2005/2/4,15:15:00,20.4 ,37.6 ,10.9 ,5.2 ,17.3 ,20.8 ,34.1 
2005/2/4,15:30:00,20.0 ,37.5 ,10.9 ,5.3 ,17.0 ,20.6 ,33.9 
2005/2/4,15:45:00,19.7 ,37.5 ,10.8 ,5.4 ,16.8 ,20.4 ,33.8 
2005/2/4,16:00:00,19.5 ,37.3 ,10.8 ,5.5 ,16.5 ,20.1 ,33.6 
2005/2/4,16:15:00,19.2 ,37.3 ,10.8 ,5.6 ,16.2 ,19.9 ,33.4 
2005/2/4,16:30:00,19.0 ,37.4 ,10.8 ,5.7 ,16.0 ,19.8 ,33.4 
2005/2/4,16:45:00,18.8 ,37.4 ,10.7 ,5.7 ,15.8 ,19.6 ,33.3 
2005/2/4,17:00:00,18.5 ,37.4 ,10.7 ,5.8 ,15.6 ,19.4 ,33.2 
2005/2/4,17:15:00,18.3 ,37.6 ,10.7 ,5.9 ,15.4 ,19.2 ,33.2 
2005/2/4,17:30:00,18.1 ,37.7 ,10.6 ,5.9 ,15.1 ,19.1 ,33.1 
2005/2/4,17:45:00,17.9 ,37.8 ,10.6 ,6.0 ,14.9 ,18.9 ,33.1 
2005/2/4,18:00:00,17.7 ,38.1 ,10.6 ,6.0 ,14.7 ,18.7 ,33.0 
2005/2/4,18:15:00,17.5 ,38.3 ,10.6 ,6.1 ,14.4 ,18.6 ,32.9 
2005/2/4,18:30:00,17.4 ,38.5 ,10.5 ,6.1 ,14.3 ,18.4 ,32.9 
2005/2/4,18:45:00,17.2 ,38.6 ,10.5 ,6.2 ,14.1 ,18.3 ,32.9 
2005/2/4,19:00:00,17.0 ,38.8 ,10.4 ,6.2 ,14.0 ,18.1 ,32.9 
2005/2/4,19:15:00,17.8 ,38.0 ,10.4 ,6.3 ,14.3 ,18.0 ,32.8 
2005/2/4,19:30:00,17.1 ,38.8 ,10.4 ,6.3 ,14.2 ,17.8 ,32.9 
2005/2/4,19:45:00,16.9 ,38.9 ,10.4 ,6.3 ,14.0 ,17.7 ,32.9 
2005/2/4,20:00:00,16.7 ,39.1 ,10.3 ,6.4 ,13.9 ,17.6 ,32.9 
2005/2/4,20:15:00,16.5 ,39.2 ,10.3 ,6.4 ,13.7 ,17.4 ,32.9 
2005/2/4,20:30:00,17.3 ,38.1 ,10.3 ,6.4 ,14.2 ,17.4 ,32.8 
2005/2/4,20:45:00,16.6 ,39.0 ,10.3 ,6.5 ,14.0 ,17.3 ,32.9 
2005/2/4,21:00:00,16.3 ,39.1 ,10.2 ,6.5 ,13.8 ,17.2 ,32.9 
2005/2/4,21:15:00,17.1 ,38.3 ,10.2 ,6.5 ,14.0 ,17.1 ,32.8 
2005/2/4,21:30:00,16.6 ,38.5 ,10.2 ,6.5 ,14.1 ,17.1 ,32.8 
2005/2/4,21:45:00,17.1 ,38.6 ,10.1 ,6.6 ,13.9 ,16.9 ,32.9 
2005/2/4,22:00:00,18.3 ,38.4 ,10.2 ,6.6 ,15.3 ,17.0 ,33.1 
2005/2/4,22:15:00,18.9 ,38.4 ,10.1 ,6.6 ,15.5 ,17.1 ,33.9 
2005/2/4,22:30:00,19.1 ,38.2 ,10.1 ,4.7 ,15.5 ,17.3 ,34.4 
2005/2/4,22:45:00,19.3 ,38.3 ,10.1 ,4.8 ,15.7 ,17.5 ,34.6 
2005/2/4,23:00:00,19.6 ,38.0 ,10.0 ,4.9 ,15.6 ,17.6 ,34.8 
2005/2/4,23:15:00,19.7 ,39.1 ,10.0 ,5.0 ,15.8 ,17.8 ,35.3 
2005/2/4,23:30:00,19.9 ,38.5 ,10.0 ,5.1 ,16.0 ,18.1 ,35.4 
2005/2/4,23:45:00,20.2 ,40.4 ,10.0 ,5.2 ,16.0 ,18.2 ,36.3 
2005/2/5,0:00:00,19.4 ,41.3 ,9.9 ,4.6 ,15.9 ,18.3 ,36.2 
2005/2/5,0:15:00,18.6 ,42.9 ,10.0 ,4.7 ,15.1 ,18.2 ,35.7 
2005/2/5,0:30:00,18.2 ,42.5 ,10.0 ,4.8 ,14.6 ,18.0 ,35.4 
2005/2/5,0:45:00,17.9 ,42.5 ,10.0 ,4.9 ,14.3 ,17.8 ,35.3 
2005/2/5,1:00:00,17.5 ,42.5 ,9.9 ,4.9 ,13.9 ,17.6 ,35.2 
2005/2/5,1:15:00,17.3 ,42.8 ,9.9 ,5.0 ,13.7 ,17.4 ,35.1 
2005/2/5,1:30:00,17.1 ,42.7 ,9.9 ,5.1 ,13.5 ,17.2 ,35.1 
2005/2/5,1:45:00,16.9 ,42.8 ,9.9 ,5.2 ,13.3 ,17.0 ,35.1 
2005/2/5,2:00:00,16.7 ,42.7 ,9.9 ,5.2 ,13.3 ,16.9 ,35.0 
2005/2/5,2:15:00,16.5 ,42.5 ,9.8 ,5.3 ,13.2 ,16.8 ,34.9 
2005/2/5,2:30:00,16.3 ,42.3 ,9.8 ,5.3 ,13.2 ,16.6 ,34.8 
2005/2/5,2:45:00,16.1 ,42.1 ,9.8 ,5.4 ,13.1 ,16.5 ,34.7 
2005/2/5,3:00:00,16.0 ,42.0 ,9.7 ,5.4 ,13.0 ,16.3 ,34.6 
2005/2/5,3:15:00,15.8 ,41.8 ,9.7 ,5.5 ,12.8 ,16.2 ,34.5 
2005/2/5,3:30:00,15.6 ,41.6 ,9.7 ,5.5 ,12.6 ,16.1 ,34.4 
2005/2/5,3:45:00,15.5 ,41.6 ,9.7 ,5.5 ,12.5 ,15.9 ,34.3 
2005/2/5,4:00:00,15.3 ,41.5 ,9.6 ,5.6 ,12.4 ,15.8 ,34.2 
2005/2/5,4:15:00,16.5 ,39.7 ,9.6 ,5.6 ,12.5 ,15.8 ,34.2 
2005/2/5,4:30:00,17.2 ,38.5 ,9.6 ,5.6 ,13.0 ,15.8 ,34.4 
2005/2/5,4:45:00,17.5 ,38.1 ,9.5 ,5.7 ,13.3 ,15.9 ,34.5 
2005/2/5,5:00:00,17.9 ,37.4 ,9.5 ,5.7 ,13.4 ,16.1 ,34.5 
2005/2/5,5:15:00,18.1 ,37.1 ,9.5 ,5.7 ,13.7 ,16.3 ,34.5 